Location: Maiden
(35.5760°N, 81.2120°W)
Time: 02:41:04
(UTC-04:00)

A-11 Canister half - Pass Details

Date: 08 August 2020
Orbit: 1527 x 1682 km, 47.3° (Epoch: 25 September)

Event Time Altitude Azimuth Distance (km) Brightness Sun altitude
Rises 11:18:39 0° 195° (SSW) 4,862 11.7 54.7°
Reaches altitude 10° 11:22:15 10° 185° (S) 3,896 11.4 55.3°
Maximum altitude 11:30:36 31° 128° (SE) 2,630 11.6 56.8°
Drops below altitude 10° 11:39:01 10° 71° (ENE) 3,945 11.6 58.3°
Sets 11:42:39 0° 62° (ENE) 4,932 11.9 58.9°
